Flag for United Kingdom Weather past 2 weeks in Liverpool, England, United Kingdom

Now
70 °F

Passing clouds.


Feels Like: 70 °F
Forecast: 61 / 64 °F
Wind: 15 mph from Northwest

Location: Liverpool Airport

Current Time: Jul 28, 2014 at 5:59:10 PM

Latest Report: Jul 28, 2014 at 5:20 PM


Visibility: N/A

Pressure: 30.04 "Hg

Humidity: 64%

Dew point: 57 °F

Location of LiverpoolLocation

Historic Weather in Liverpool — Graph

°F

Liverpool temperature yesterday

Maximum temperature yesterday: 68 °F (at 1:20 PM)
Minimum temperature yesterday: 57 °F (at 11:20 PM)
Average temperature yesterday: 63 °F

Past Weeks' High & Low Weather Summary

 TemperatureHumidityPressure
High82 °F (Jul 25, 3:20 PM)100% (Jul 19, 5:20 AM)30.24 "Hg (Jul 19, 5:20 AM)
Low52 °F (Jul 14, 4:20 AM)35% (Jul 25, 3:50 PM)29.71 "Hg (Jul 19, 5:20 PM)
Average66 °F74%30.02 "Hg
* Reported Jul 13 4:20 PM — Jul 28 4:50 PM, Liverpool, Weather by CustomWeather, © 2014

Note: Actual official high and low records may vary slightly from our data, if they occured in-between our weather recording intervals... More about our weather records

Advertising

Liverpool weather history for previous 24 hours

 ConditionsComfort  
Time TempWeatherWind HumidityBarometerVisibility
4:50 PM
Jul 28
70 °FPassing clouds.14 mph60%30.04 "HgN/A
4:20 PM72 °FPassing clouds.10 mph61%30.04 "HgN/A
3:50 PM72 °FPassing clouds.13 mph61%30.04 "HgN/A
3:20 PM70 °FPassing clouds.9 mph60%30.04 "HgN/A
2:50 PM70 °FPassing clouds.6 mph57%30.07 "HgN/A
2:20 PM70 °FScattered clouds.9 mph60%30.07 "HgN/A
1:20 PM68 °FScattered clouds.6 mph60%30.04 "HgN/A
12:50 PM66 °FScattered clouds.7 mph73%30.04 "HgN/A
12:20 PM70 °FScattered clouds.3 mph60%30.04 "HgN/A
11:20 AM64 °FScattered clouds.6 mph73%30.04 "HgN/A
10:50 AM66 °FScattered clouds.5 mph68%30.04 "HgN/A
10:20 AM63 °FScattered clouds.3 mph77%30.04 "HgN/A
9:50 AM64 °FBroken clouds.6 mph78%30.04 "HgN/A
9:20 AM63 °FBroken clouds.6 mph83%30.04 "HgN/A
8:50 AM61 °FBroken clouds.7 mph88%30.04 "HgN/A
8:20 AM61 °FScattered clouds.7 mph88%30.04 "HgN/A
7:50 AM59 °FScattered clouds.3 mph94%30.01 "HgN/A
7:20 AM57 °FPartly sunny.5 mph100%30.01 "HgN/A
6:50 AM59 °FScattered clouds.5 mph94%30.01 "HgN/A
6:20 AM57 °FFog.1 mph94%30.01 "HgN/A
5:50 AM57 °FFog.No wind94%30.01 "HgN/A
5:20 AM57 °FClear.1 mph94%29.98 "Hg10 mi
4:50 AM57 °FClear.5 mph88%29.98 "Hg10 mi
4:20 AM57 °FPassing clouds.5 mph94%29.98 "HgN/A
3:50 AM57 °FPassing clouds.5 mph94%29.98 "HgN/A
3:20 AM57 °FPassing clouds.5 mph94%29.98 "HgN/A
2:50 AM57 °FScattered showers. Passing clouds.6 mph94%30.01 "HgN/A
2:20 AM57 °FPartly cloudy.7 mph94%30.01 "HgN/A
1:50 AM59 °FPartly cloudy.7 mph88%30.01 "HgN/A
1:20 AM59 °FMixture of precip. Partly cloudy.8 mph88%30.01 "HgN/A
12:20 AM59 °FScattered showers. Passing clouds.3 mph88%30.01 "HgN/A
11:50 PM
Jul 27
59 °FPassing clouds.6 mph88%30.01 "HgN/A
11:20 PM57 °FPassing clouds.6 mph88%30.01 "HgN/A
10:50 PM59 °FPassing clouds.6 mph88%30.01 "HgN/A
9:50 PM59 °FLight rain. Passing clouds.10 mph88%30.01 "HgN/A
9:20 PM59 °FLight rain. Passing clouds.8 mph94%30.01 "HgN/A
8:50 PM59 °FSprinkles. Scattered clouds.15 mph88%30.01 "HgN/A
8:20 PM61 °FScattered clouds.14 mph88%30.01 "HgN/A
7:50 PM63 °FSprinkles. Scattered clouds.17 mph77%30.01 "HgN/A
7:20 PM64 °FScattered clouds.14 mph64%30.01 "HgN/A
6:50 PM66 °FPassing clouds.16 mph60%30.01 "HgN/A
6:20 PM66 °FPassing clouds.16 mph60%30.01 "HgN/A
5:50 PM68 °FPassing clouds.16 mph56%30.01 "HgN/A
5:20 PM68 °FPassing clouds.16 mph60%30.01 "HgN/A
Weather by CustomWeather, © 2014

See weather overviewHow to use our weather pages